Canby, MN

1:14 AM CDT on March 24, 2017 (GMT -0500)
Canby

Weather History for KCNB - March, 2014

Change the Weather History Date:

Tuesday, March 25, 2014

  Actual Average (KMML) Record (KMML)
Temperature  
Mean Temperature 20 °F -  
Max Temperature 28 °F 44 °F 80 °F (1967)
Min Temperature 11 °F 26 °F -4 °F (2002)
Degree Days  
Heating Degree Days 46    
Moisture  
Dew Point 8 °F    
Average Humidity 61    
Maximum Humidity 81    
Minimum Humidity 37    
Precipitation  
Precipitation 0.00 in - - ()
Sea Level Pressure  
Sea Level Pressure 30.25 in    
Wind  
Wind Speed 13 mph (NW)    
Max Wind Speed 20 mph    
Max Gust Speed 26 mph    
Visibility 10 miles    
Events Snow    
Averages and records for this station are not official NWS values.
T = Trace of Precipitation, MM = Missing Value Source: NWS Daily Summary

Daily Weather History Graph

Daily Weather History Graph

Search for Another Location

Airport or City:

Trip Planner

Search our weather history database for the weather conditions in past years. The results will help you decide how hot, cold, wet, or windy it might be!

Date:

Astronomy

Mar. 25, 2014 Rise Set
Actual Time 7:18 AM CDT 7:43 PM CDT
Civil Twilight 6:49 AM CDT 8:13 PM CDT
Nautical Twilight 6:15 AM CDT 8:47 PM CDT
Astronomical Twilight 5:39 AM CDT 9:23 PM CDT
Moon 3:53 AM CDT (3/25) 2:03 PM CDT (3/25)
Length of Visible Light 13h 23m
Length of Day
12h 25m
Waning Crescent, 32% of the Moon is Illuminated
Mar 25
Waning Crescent
Mar 30
New
Apr 7
First Quarter
Apr 15
Full
Apr 22
Last Quarter

Hourly Weather History & Observations

Time (CDT) Temp. Windchill Dew Point Humidity Pressure Visibility Wind Dir Wind Speed Gust Speed Precip Events Conditions
12:14 AM 23.7 °F 10.1 °F 16.3 °F 73% 30.22 in 10.0 mi NW 17.3 mph 20.7 mph N/A   Mostly Cloudy
12:35 AM 23.4 °F 8.8 °F 13.1 °F 65% 30.23 in 10.0 mi NNW 19.6 mph 24.2 mph N/A   Mostly Cloudy
12:54 AM 22.8 °F 9.9 °F 13.8 °F 68% 30.23 in 10.0 mi NNW 15.0 mph 23.0 mph N/A   Overcast
1:14 AM 22.1 °F 8.0 °F 14.4 °F 72% 30.24 in 7.0 mi NNW 17.3 mph 26.5 mph N/A Snow Light Snow
1:34 AM 21.6 °F 7.3 °F 14.7 °F 75% 30.24 in 5.0 mi NNW 17.3 mph 23.0 mph N/A Snow Light Snow
1:54 AM 20.3 °F 6.1 °F 13.8 °F 76% 30.25 in 7.0 mi NNW 16.1 mph - N/A Snow Light Snow
2:14 AM 19.4 °F 5.5 °F 12.0 °F 73% 30.26 in 10.0 mi NNW 15.0 mph 24.2 mph N/A   Overcast
2:34 AM 18.5 °F 4.3 °F 11.1 °F 73% 30.26 in 10.0 mi NNW 15.0 mph 21.9 mph N/A   Overcast
2:54 AM 17.6 °F 5.0 °F 10.9 °F 75% 30.27 in 10.0 mi North 11.5 mph - N/A   Mostly Cloudy
3:15 AM 17.4 °F 2.9 °F 11.3 °F 77% 30.28 in 7.0 mi North 15.0 mph - N/A Snow Light Snow
3:34 AM 16.7 °F 1.5 °F 8.2 °F 69% 30.28 in 10.0 mi North 16.1 mph 23.0 mph N/A   Overcast
3:54 AM 15.3 °F 2.0 °F 7.3 °F 71% 30.29 in 10.0 mi NNW 11.5 mph 20.7 mph N/A   Scattered Clouds
4:14 AM 14.5 °F -0.7 °F 6.6 °F 71% 30.30 in 10.0 mi NNW 15.0 mph 19.6 mph N/A   Clear
4:35 AM 13.8 °F -0.5 °F 5.4 °F 69% 30.31 in 10.0 mi NW 12.7 mph 19.6 mph N/A   Scattered Clouds
4:54 AM 13.5 °F -3.2 °F 4.5 °F 67% 30.31 in 10.0 mi NNW 17.3 mph 24.2 mph N/A   Scattered Clouds
5:14 AM 12.9 °F -0.9 °F 4.1 °F 68% 30.32 in 10.0 mi NNW 11.5 mph 20.7 mph N/A   Scattered Clouds
5:35 AM 12.6 °F -1.4 °F 5.0 °F 72% 30.32 in 10.0 mi NW 11.5 mph - N/A   Scattered Clouds
5:54 AM 12.2 °F -0.2 °F 5.2 °F 73% 30.32 in 10.0 mi NNW 9.2 mph - N/A   Clear
6:14 AM 12.2 °F 0.7 °F 5.7 °F 75% 30.32 in 10.0 mi NNW 8.1 mph - N/A   Scattered Clouds
6:34 AM 12.6 °F 3.4 °F 6.4 °F 77% 30.32 in 10.0 mi NW 5.8 mph - N/A   Mostly Cloudy
6:55 AM 11.8 °F 2.5 °F 6.4 °F 79% 30.32 in 10.0 mi NW 5.8 mph - N/A   Mostly Cloudy
7:14 AM 11.3 °F 1.9 °F 6.4 °F 81% 30.31 in 10.0 mi WNW 5.8 mph - N/A   Mostly Cloudy
7:34 AM 11.8 °F 2.5 °F 6.8 °F 80% 30.32 in 10.0 mi WNW 5.8 mph - N/A   Overcast
7:54 AM 12.9 °F 1.6 °F 7.3 °F 78% 30.33 in 10.0 mi WNW 8.1 mph - N/A   Overcast
8:14 AM 12.9 °F -0.9 °F 7.5 °F 79% 30.34 in 5.0 mi WNW 11.5 mph - N/A   Haze
8:35 AM 13.1 °F -2.0 °F 7.2 °F 77% 30.34 in 10.0 mi WNW 13.8 mph 17.3 mph N/A   Overcast
8:54 AM 13.1 °F -2.6 °F 5.7 °F 72% 30.35 in 10.0 mi WNW 15.0 mph - N/A   Overcast
9:14 AM 13.6 °F -1.3 °F 5.7 °F 71% 30.35 in 10.0 mi NW 13.8 mph - N/A   Overcast
9:34 AM 14.7 °F -0.5 °F 5.7 °F 68% 30.34 in 10.0 mi NW 15.0 mph 20.7 mph N/A   Overcast
9:54 AM 14.7 °F 0.1 °F 5.9 °F 68% 30.35 in 10.0 mi NW 13.8 mph 18.4 mph N/A   Mostly Cloudy
10:15 AM 15.4 °F 1.6 °F 5.2 °F 64% 30.35 in 10.0 mi WNW 12.7 mph 19.6 mph N/A   Mostly Cloudy
10:34 AM 16.3 °F 2.7 °F 4.8 °F 61% 30.35 in 10.0 mi NW 12.7 mph 20.7 mph N/A   Mostly Cloudy
10:54 AM 17.2 °F 2.2 °F 4.8 °F 58% 30.34 in 10.0 mi NW 16.1 mph 19.6 mph N/A   Mostly Cloudy
11:15 AM 17.4 °F 3.5 °F 5.5 °F 60% 30.34 in 10.0 mi WNW 13.8 mph 19.6 mph N/A   Mostly Cloudy
11:34 AM 18.7 °F 6.3 °F 5.7 °F 57% 30.34 in 10.0 mi WNW 11.5 mph - N/A   Mostly Cloudy
11:55 AM 19.2 °F 6.4 °F 6.4 °F 58% 30.33 in 10.0 mi NW 12.7 mph 17.3 mph N/A   Mostly Cloudy
12:14 PM 19.9 °F 7.3 °F 6.8 °F 57% 30.32 in 10.0 mi WNW 12.7 mph 19.6 mph N/A   Scattered Clouds
12:34 PM 21.2 °F 8.9 °F 7.5 °F 56% 30.31 in 10.0 mi NW 12.7 mph 18.4 mph N/A   Scattered Clouds
12:55 PM 21.7 °F 10.8 °F 7.7 °F 55% 30.30 in 10.0 mi NW 10.4 mph 19.6 mph N/A   Scattered Clouds
1:14 PM 23.0 °F 10.1 °F 7.9 °F 52% 30.30 in 10.0 mi WNW 15.0 mph 24.2 mph N/A   Scattered Clouds
1:34 PM 23.7 °F 10.5 °F 7.3 °F 50% 30.29 in 10.0 mi NW 16.1 mph 20.7 mph N/A   Clear
1:55 PM 23.9 °F 12.9 °F 7.5 °F 50% 30.27 in 10.0 mi NW 11.5 mph 18.4 mph N/A   Clear
2:15 PM 25.5 °F 13.8 °F 8.2 °F 48% 30.26 in 10.0 mi WNW 13.8 mph 23.0 mph N/A   Clear
2:35 PM 25.9 °F 16.0 °F 7.2 °F 45% 30.25 in 10.0 mi WNW 10.4 mph 25.3 mph N/A   Clear
2:54 PM 27.1 °F 14.9 °F 7.5 °F 44% 30.24 in 10.0 mi WNW 16.1 mph 23.0 mph N/A   Clear
3:14 PM 27.5 °F 16.8 °F 7.3 °F 43% 30.23 in 10.0 mi WNW 12.7 mph 18.4 mph N/A   Clear
3:34 PM 27.9 °F 15.5 °F 7.7 °F 43% 30.22 in 10.0 mi WNW 17.3 mph 21.9 mph N/A   Clear
3:54 PM 27.5 °F 17.4 °F 5.9 °F 40% 30.21 in 10.0 mi NW 11.5 mph 18.4 mph N/A   Clear
4:15 PM 28.4 °F 18.5 °F 7.2 °F 41% 30.20 in 10.0 mi WNW 11.5 mph 16.1 mph N/A   Clear
4:34 PM 28.4 °F 19.1 °F 6.8 °F 40% 30.19 in 10.0 mi WNW 10.4 mph - N/A   Clear
4:54 PM 28.2 °F 19.5 °F 5.7 °F 39% 30.19 in 10.0 mi West 9.2 mph 17.3 mph N/A   Clear
5:15 PM 28.6 °F 18.2 °F 6.1 °F 39% 30.19 in 10.0 mi WNW 12.7 mph 16.1 mph N/A   Clear
5:34 PM 28.4 °F 18.5 °F 5.4 °F 38% 30.18 in 10.0 mi West 11.5 mph 17.3 mph N/A   Clear
5:54 PM 28.8 °F 19.5 °F 5.5 °F 37% 30.17 in 10.0 mi NW 10.4 mph - N/A   Clear
6:14 PM 28.9 °F 19.2 °F 6.1 °F 38% 30.17 in 10.0 mi WNW 11.5 mph - N/A   Clear
6:34 PM 28.4 °F 19.1 °F 7.0 °F 40% 30.17 in 10.0 mi West 10.4 mph - N/A   Clear
6:54 PM 28.0 °F 19.3 °F 6.8 °F 41% 30.17 in 10.0 mi NW 9.2 mph - N/A   Clear
7:14 PM 26.6 °F 20.0 °F 8.1 °F 46% 30.16 in 10.0 mi WNW 5.8 mph - N/A   Clear
7:34 PM 25.5 °F 19.9 °F 9.3 °F 50% 30.15 in 10.0 mi West 4.6 mph - N/A   Clear
7:54 PM 24.8 °F 19.1 °F 8.8 °F 51% 30.15 in 10.0 mi West 4.6 mph - N/A   Clear
8:14 PM 23.9 °F - 10.6 °F 57% 30.15 in 10.0 mi Calm Calm - N/A   Clear
8:34 PM 24.3 °F - 9.3 °F 53% 30.15 in 10.0 mi Calm Calm - N/A   Clear
8:54 PM 23.9 °F - 7.9 °F 51% 30.14 in 10.0 mi Calm Calm - N/A   Clear
9:14 PM 22.3 °F - 8.4 °F 55% 30.14 in 10.0 mi Calm Calm - N/A   Clear
9:34 PM 22.1 °F 15.9 °F 9.7 °F 59% 30.14 in 10.0 mi SSW 4.6 mph - N/A   Clear
9:54 PM 21.9 °F 17.2 °F 10.2 °F 61% 30.13 in 10.0 mi South 3.5 mph - N/A   Clear
10:14 PM 22.1 °F 17.4 °F 10.6 °F 61% 30.12 in 10.0 mi South 3.5 mph - N/A   Clear
10:34 PM 21.9 °F 17.2 °F 10.6 °F 62% 30.12 in 10.0 mi South 3.5 mph - N/A   Clear
10:54 PM 21.0 °F 16.2 °F 11.1 °F 66% 30.12 in 10.0 mi South 3.5 mph - N/A   Clear
11:14 PM 20.8 °F 14.4 °F 11.1 °F 66% 30.11 in 10.0 mi SSE 4.6 mph - N/A   Clear
11:35 PM 18.7 °F 10.6 °F 12.7 °F 78% 30.09 in 10.0 mi South 5.8 mph - N/A   Clear
11:54 PM 20.3 °F 12.5 °F 12.7 °F 73% 30.09 in 10.0 mi SSE 5.8 mph - N/A   Clear